Location: ???????
(55.4362°N, 38.1183°E)
Time: 16:09:57
(UTC+00:00)

ALOS 2 - Pass Details

Date: 17 June 2021
Orbit: 630 x 632 km, 97.9° (Epoch: 30 July)

Event Time Altitude Azimuth Distance (km) Brightness Sun altitude
Exits shadow 20:55:02 15° 177° (S) 1,697 4.1 -10.8°
Maximum altitude 20:58:35 64° 257° (WSW) 704 2.8 -10.9°
Drops below altitude 10° 21:02:59 10° 340° (NNW) 2,029 6.6 -11.0°
Sets 21:05:13 0° 344° (NNW) 2,942 8.0 -11.0°
